Location: Twentynine Palms Airport
(34.1316°N, 115.9458°W)
Time: 18:49:01
(UTC-07:00)

Oscar 19 - Visible Passes

Search period start: 18 April 2014 00:00
Search period end: 28 April 2014 00:00
Orbit: 775 x 791 km, 98.5° (Epoch: 17 April)

Date Brightness Start Highest point End Pass type
(mag) Time Alt. Az. Time Alt. Az. Time Alt. Az.
18 Apr 13.0 02:10:09 10° NNE 02:11:43 20° NNE 02:11:43 20° NNE visible
18 Apr 12.9 03:51:28 10° NNW 03:52:18 12° NW 03:52:18 12° NW visible
19 Apr 13.4 01:39:12 10° NE 01:39:55 13° NE 01:39:55 13° NE visible
19 Apr 12.6 03:18:32 10° NNW 03:20:31 20° NNW 03:20:31 20° NNW visible
20 Apr 12.5 02:46:30 10° N 02:48:43 25° N 02:48:43 25° N visible
21 Apr 12.7 02:14:57 10° NNE 02:16:54 23° NNE 02:16:54 23° NNE visible
21 Apr 12.9 03:56:43 10° NW 03:57:30 11° NW 03:57:30 11° NW visible
22 Apr 13.2 01:43:54 10° NE 01:45:06 16° NE 01:45:06 16° NE visible
22 Apr 12.5 03:23:30 10° NNW 03:25:41 20° NW 03:25:41 20° NW visible
23 Apr 12.3 02:51:22 10° N 02:53:53 28° NNW 02:53:53 28° NNW visible
24 Apr 12.5 02:19:44 10° NNE 02:22:05 27° NNE 02:22:05 27° NNE visible
24 Apr 12.9 04:02:10 10° NW 04:02:40 11° NW 04:02:40 11° NW visible
25 Apr 13.0 01:48:36 10° NNE 01:50:16 19° NE 01:50:16 19° NE visible
25 Apr 12.4 03:28:28 10° NNW 03:30:51 20° NW 03:30:51 20° NW visible
26 Apr 13.5 01:18:15 10° NE 01:18:27 11° NE 01:18:27 11° NE visible
26 Apr 12.1 02:56:14 10° N 02:59:02 30° NNW 02:59:02 30° NNW visible
27 Apr 12.2 02:24:32 10° NNE 02:27:13 32° NNE 02:27:13 32° NNE visible
